Location: La Bilong�re
(48.1297°N, 1.4584°W)
Time: 07:59:32
(UTC+00:00)

USA 234 - Pass Details

Date: 03 March 2021
Orbit: 1102 x 1105 km, 123.0° (Epoch: 12 April)

Event Time Altitude Azimuth Distance (km) Brightness Sun altitude
Exits shadow 21:27:18 60° 347° (NNW) 1,246 3.6 -34.9°
Maximum altitude 21:27:32 61° 336° (NNW) 1,242 3.6 -34.9°
Drops below altitude 10° 21:33:57 10° 258° (WSW) 2,960 5.9 -35.8°
Sets 21:36:27 0° 255° (WSW) 3,917 6.6 -36.1°
